Location: Kolin
(50.0330°N, 15.2000°E)
Time: 09:18:49
(UTC+02:00)

Gurwin Techsat 1B - Pass Details

Date: 21 August 2022
Orbit: 811 x 814 km, 98.8° (Epoch: 25 September)

Event Time Altitude Azimuth Distance (km) Brightness Sun altitude
Rises 02:47:26 0° 23° (NNE) 3,350 13.2 -23.7°
Reaches altitude 10° 02:50:07 10° 34° (NE) 2,413 12.2 -23.5°
Maximum altitude 02:54:43 29° 94° (E) 1,463 10.1 -23.1°
Enters shadow 02:57:44 17° 141° (SE) 1,927 10.4 -22.9°
